owner,sensor,date,latitude,longitude,air_temperature,qcFlag 
COMPS,ioos:station:USF.COMPS:EGK:1,2008-08-11T01:00:00Z,27.6010,-82.7510,28.59,1111122 
COMPS,ioos:station:USF.COMPS:EGK:1,2008-08-11T01:06:00Z,27.6010,-82.7510,28.71,1111122 
COMPS,ioos:station:USF.COMPS:EGK:1,2008-08-11T01:12:00Z,27.6010,-82.7510,28.71,1111122 
COMPS,ioos:station:USF.COMPS:EGK:1,2008-08-11T01:18:00Z,27.6010,-82.7510,28.68,1111122 
COMPS,ioos:station:USF.COMPS:EGK:1,2008-08-11T01:24:00Z,27.6010,-82.7510,28.58,1111122 
COMPS,ioos:station:USF.COMPS:EGK:1,2008-08-11T01:30:00Z,27.6010,-82.7510,28.64,1111122 
COMPS,ioos:station:USF.COMPS:EGK:1,2008-08-11T01:36:00Z,27.6010,-82.7510,28.6,1111122 
COMPS,ioos:station:USF.COMPS:EGK:1,2008-08-11T01:42:00Z,27.6010,-82.7510,28.61,1111122 
COMPS,ioos:station:USF.COMPS:EGK:1,2008-08-11T01:48:00Z,27.6010,-82.7510,28.64,1111122 
COMPS,ioos:station:USF.COMPS:EGK:1,2008-08-11T01:54:00Z,27.6010,-82.7510,28.7,1111122 
COMPS,ioos:station:USF.COMPS:EGK:1,2008-08-11T02:00:00Z,27.6010,-82.7510,28.72,1111122 
COMPS,ioos:station:USF.COMPS:EGK:1,2008-08-11T02:06:00Z,27.6010,-82.7510,28.72,1111122 
COMPS,ioos:station:USF.COMPS:EGK:1,2008-08-11T02:12:00Z,27.6010,-82.7510,28.73,1111122 
COMPS,ioos:station:USF.COMPS:EGK:1,2008-08-11T02:18:00Z,27.6010,-82.7510,28.72,1111122 
COMPS,ioos:station:USF.COMPS:EGK:1,2008-08-11T02:24:00Z,27.6010,-82.7510,28.72,1111122 
COMPS,ioos:station:USF.COMPS:EGK:1,2008-08-11T02:30:00Z,27.6010,-82.7510,28.7,1111122 
COMPS,ioos:station:USF.COMPS:EGK:1,2008-08-11T02:36:00Z,27.6010,-82.7510,28.6,1111122 
COMPS,ioos:station:USF.COMPS:EGK:1,2008-08-11T02:42:00Z,27.6010,-82.7510,28.62,1111122 
COMPS,ioos:station:USF.COMPS:EGK:1,2008-08-11T02:48:00Z,27.6010,-82.7510,28.68,1111122 
COMPS,ioos:station:USF.COMPS:EGK:1,2008-08-11T02:54:00Z,27.6010,-82.7510,28.77,1111122 
COMPS,ioos:station:USF.COMPS:EGK:1,2008-08-11T03:00:00Z,27.6010,-82.7510,28.8,1111122 
COMPS,ioos:station:USF.COMPS:EGK:1,2008-08-11T03:06:00Z,27.6010,-82.7510,28.72,1111122 
COMPS,ioos:station:USF.COMPS:EGK:1,2008-08-11T03:12:00Z,27.6010,-82.7510,28.74,1111122 
COMPS,ioos:station:USF.COMPS:EGK:1,2008-08-11T03:18:00Z,27.6010,-82.7510,28.73,1111122 
COMPS,ioos:station:USF.COMPS:EGK:1,2008-08-11T03:24:00Z,27.6010,-82.7510,28.72,1111122 
COMPS,ioos:station:USF.COMPS:EGK:1,2008-08-11T03:30:00Z,27.6010,-82.7510,28.72,1111122 
COMPS,ioos:station:USF.COMPS:EGK:1,2008-08-11T03:36:00Z,27.6010,-82.7510,28.72,1111122 
COMPS,ioos:station:USF.COMPS:EGK:1,2008-08-11T03:42:00Z,27.6010,-82.7510,28.72,1111122 
COMPS,ioos:station:USF.COMPS:EGK:1,2008-08-11T03:48:00Z,27.6010,-82.7510,28.84,1111122 
COMPS,ioos:station:USF.COMPS:EGK:1,2008-08-11T03:54:00Z,27.6010,-82.7510,28.84,1111122 
COMPS,ioos:station:USF.COMPS:EGK:1,2008-08-11T04:00:00Z,27.6010,-82.7510,28.9,1111122 
COMPS,ioos:station:USF.COMPS:EGK:1,2008-08-11T04:06:00Z,27.6010,-82.7510,28.91,1111122 
COMPS,ioos:station:USF.COMPS:EGK:1,2008-08-11T04:12:00Z,27.6010,-82.7510,28.84,1111122 
COMPS,ioos:station:USF.COMPS:EGK:1,2008-08-11T04:18:00Z,27.6010,-82.7510,28.79,1111122 
COMPS,ioos:station:USF.COMPS:EGK:1,2008-08-11T04:24:00Z,27.6010,-82.7510,28.76,1111122 
COMPS,ioos:station:USF.COMPS:EGK:1,2008-08-11T04:30:00Z,27.6010,-82.7510,28.76,1111122 
COMPS,ioos:station:USF.COMPS:EGK:1,2008-08-11T04:36:00Z,27.6010,-82.7510,28.85,1111122 
COMPS,ioos:station:USF.COMPS:EGK:1,2008-08-11T04:42:00Z,27.6010,-82.7510,28.84,1111122 
COMPS,ioos:station:USF.COMPS:EGK:1,2008-08-11T04:48:00Z,27.6010,-82.7510,28.72,1111122 
COMPS,ioos:station:USF.COMPS:EGK:1,2008-08-11T04:54:00Z,27.6010,-82.7510,28.71,1111122 
COMPS,ioos:station:USF.COMPS:EGK:1,2008-08-11T05:00:00Z,27.6010,-82.7510,28.82,1111122 
COMPS,ioos:station:USF.COMPS:EGK:1,2008-08-11T05:06:00Z,27.6010,-82.7510,28.85,1111122 
COMPS,ioos:station:USF.COMPS:EGK:1,2008-08-11T05:12:00Z,27.6010,-82.7510,28.88,1111122 
COMPS,ioos:station:USF.COMPS:EGK:1,2008-08-11T05:18:00Z,27.6010,-82.7510,28.85,1111122 
COMPS,ioos:station:USF.COMPS:EGK:1,2008-08-11T05:24:00Z,27.6010,-82.7510,28.84,1111122 
COMPS,ioos:station:USF.COMPS:EGK:1,2008-08-11T05:30:00Z,27.6010,-82.7510,28.84,1111122 
COMPS,ioos:station:USF.COMPS:EGK:1,2008-08-11T05:36:00Z,27.6010,-82.7510,28.76,1111122 
COMPS,ioos:station:USF.COMPS:EGK:1,2008-08-11T05:42:00Z,27.6010,-82.7510,28.78,1111122 
COMPS,ioos:station:USF.COMPS:EGK:1,2008-08-11T05:48:00Z,27.6010,-82.7510,28.86,1111122 
COMPS,ioos:station:USF.COMPS:EGK:1,2008-08-11T05:54:00Z,27.6010,-82.7510,28.85,1111122 
COMPS,ioos:station:USF.COMPS:EGK:1,2008-08-11T06:00:00Z,27.6010,-82.7510,28.78,1111122 
COMPS,ioos:station:USF.COMPS:EGK:1,2008-08-11T06:06:00Z,27.6010,-82.7510,28.73,1111122 
COMPS,ioos:station:USF.COMPS:EGK:1,2008-08-11T06:12:00Z,27.6010,-82.7510,28.72,1111122 
COMPS,ioos:station:USF.COMPS:EGK:1,2008-08-11T06:18:00Z,27.6010,-82.7510,28.71,1111122 
COMPS,ioos:station:USF.COMPS:EGK:1,2008-08-11T06:24:00Z,27.6010,-82.7510,28.71,1111122 
COMPS,ioos:station:USF.COMPS:EGK:1,2008-08-11T06:30:00Z,27.6010,-82.7510,28.71,1111122 
COMPS,ioos:station:USF.COMPS:EGK:1,2008-08-11T06:36:00Z,27.6010,-82.7510,28.66,1111122 
COMPS,ioos:station:USF.COMPS:EGK:1,2008-08-11T06:42:00Z,27.6010,-82.7510,28.58,1111122 
COMPS,ioos:station:USF.COMPS:EGK:1,2008-08-11T06:48:00Z,27.6010,-82.7510,28.46,1111122 
COMPS,ioos:station:USF.COMPS:EGK:1,2008-08-11T06:54:00Z,27.6010,-82.7510,28.49,1111122 
COMPS,ioos:station:USF.COMPS:EGK:1,2008-08-11T07:00:00Z,27.6010,-82.7510,28.47,1111122 
COMPS,ioos:station:USF.COMPS:EGK:1,2008-08-11T07:06:00Z,27.6010,-82.7510,28.47,1111122 
COMPS,ioos:station:USF.COMPS:EGK:1,2008-08-11T07:12:00Z,27.6010,-82.7510,28.54,1111122 
COMPS,ioos:station:USF.COMPS:EGK:1,2008-08-11T07:18:00Z,27.6010,-82.7510,28.43,1111122 
COMPS,ioos:station:USF.COMPS:EGK:1,2008-08-11T07:24:00Z,27.6010,-82.7510,28.44,1111122 
COMPS,ioos:station:USF.COMPS:EGK:1,2008-08-11T07:30:00Z,27.6010,-82.7510,28.48,1111122 
COMPS,ioos:station:USF.COMPS:EGK:1,2008-08-11T07:36:00Z,27.6010,-82.7510,28.48,1111122 
COMPS,ioos:station:USF.COMPS:EGK:1,2008-08-11T07:42:00Z,27.6010,-82.7510,28.42,1111122 
COMPS,ioos:station:USF.COMPS:EGK:1,2008-08-11T07:48:00Z,27.6010,-82.7510,28.46,1111122 
COMPS,ioos:station:USF.COMPS:EGK:1,2008-08-11T07:54:00Z,27.6010,-82.7510,28.38,1111122 
COMPS,ioos:station:USF.COMPS:EGK:1,2008-08-11T08:00:00Z,27.6010,-82.7510,28.26,1111122 
COMPS,ioos:station:USF.COMPS:EGK:1,2008-08-11T08:06:00Z,27.6010,-82.7510,28.2,1111122 
COMPS,ioos:station:USF.COMPS:EGK:1,2008-08-11T08:12:00Z,27.6010,-82.7510,28.21,1111122 
COMPS,ioos:station:USF.COMPS:EGK:1,2008-08-11T08:18:00Z,27.6010,-82.7510,28.25,1111122 
COMPS,ioos:station:USF.COMPS:EGK:1,2008-08-11T08:24:00Z,27.6010,-82.7510,28.34,1111122 
COMPS,ioos:station:USF.COMPS:EGK:1,2008-08-11T08:30:00Z,27.6010,-82.7510,28.34,1111122 
COMPS,ioos:station:USF.COMPS:EGK:1,2008-08-11T08:36:00Z,27.6010,-82.7510,28.34,1111122 
COMPS,ioos:station:USF.COMPS:EGK:1,2008-08-11T08:42:00Z,27.6010,-82.7510,28.34,1111122 
COMPS,ioos:station:USF.COMPS:EGK:1,2008-08-11T08:48:00Z,27.6010,-82.7510,28.23,1111122 
COMPS,ioos:station:USF.COMPS:EGK:1,2008-08-11T08:54:00Z,27.6010,-82.7510,28.21,1111122 
COMPS,ioos:station:USF.COMPS:EGK:1,2008-08-11T09:00:00Z,27.6010,-82.7510,28.31,1111122 
COMPS,ioos:station:USF.COMPS:EGK:1,2008-08-11T09:06:00Z,27.6010,-82.7510,28.33,1111122 
COMPS,ioos:station:USF.COMPS:EGK:1,2008-08-11T09:12:00Z,27.6010,-82.7510,28.2,1111122 
COMPS,ioos:station:USF.COMPS:EGK:1,2008-08-11T09:18:00Z,27.6010,-82.7510,28.2,1111122 
COMPS,ioos:station:USF.COMPS:EGK:1,2008-08-11T09:24:00Z,27.6010,-82.7510,28.2,1111122 
COMPS,ioos:station:USF.COMPS:EGK:1,2008-08-11T09:30:00Z,27.6010,-82.7510,28.2,1111122 
COMPS,ioos:station:USF.COMPS:EGK:1,2008-08-11T09:36:00Z,27.6010,-82.7510,28.19,1111122 
COMPS,ioos:station:USF.COMPS:EGK:1,2008-08-11T09:42:00Z,27.6010,-82.7510,28.2,1111122 
COMPS,ioos:station:USF.COMPS:EGK:1,2008-08-11T09:48:00Z,27.6010,-82.7510,28.2,1111122 
COMPS,ioos:station:USF.COMPS:EGK:1,2008-08-11T09:54:00Z,27.6010,-82.7510,28.2,1111122 
COMPS,ioos:station:USF.COMPS:EGK:1,2008-08-11T10:00:00Z,27.6010,-82.7510,28.2,1111122 
COMPS,ioos:station:USF.COMPS:EGK:1,2008-08-11T10:06:00Z,27.6010,-82.7510,28.2,1111122 
COMPS,ioos:station:USF.COMPS:EGK:1,2008-08-11T10:12:00Z,27.6010,-82.7510,28.2,1111122 
COMPS,ioos:station:USF.COMPS:EGK:1,2008-08-11T10:18:00Z,27.6010,-82.7510,28.2,1111122 
COMPS,ioos:station:USF.COMPS:EGK:1,2008-08-11T10:24:00Z,27.6010,-82.7510,28.19,1111122 
COMPS,ioos:station:USF.COMPS:EGK:1,2008-08-11T10:30:00Z,27.6010,-82.7510,28.2,1111122 
COMPS,ioos:station:USF.COMPS:EGK:1,2008-08-11T10:36:00Z,27.6010,-82.7510,28.2,1111122 
COMPS,ioos:station:USF.COMPS:EGK:1,2008-08-11T10:42:00Z,27.6010,-82.7510,28.2,1111122 
COMPS,ioos:station:USF.COMPS:EGK:1,2008-08-11T10:48:00Z,27.6010,-82.7510,28.27,1111122 
COMPS,ioos:station:USF.COMPS:EGK:1,2008-08-11T10:54:00Z,27.6010,-82.7510,28.29,1111122 
COMPS,ioos:station:USF.COMPS:EGK:1,2008-08-11T11:00:00Z,27.6010,-82.7510,28.37,1111122 
COMPS,ioos:station:USF.COMPS:EGK:1,2008-08-11T11:06:00Z,27.6010,-82.7510,28.33,1111122 
COMPS,ioos:station:USF.COMPS:EGK:1,2008-08-11T11:12:00Z,27.6010,-82.7510,28.38,1111122 
COMPS,ioos:station:USF.COMPS:EGK:1,2008-08-11T11:18:00Z,27.6010,-82.7510,28.35,1111122 
COMPS,ioos:station:USF.COMPS:EGK:1,2008-08-11T11:24:00Z,27.6010,-82.7510,28.41,1111122 
COMPS,ioos:station:USF.COMPS:EGK:1,2008-08-11T11:30:00Z,27.6010,-82.7510,28.48,1111122 
COMPS,ioos:station:USF.COMPS:EGK:1,2008-08-11T11:36:00Z,27.6010,-82.7510,28.59,1111122 
COMPS,ioos:station:USF.COMPS:EGK:1,2008-08-11T11:42:00Z,27.6010,-82.7510,28.49,1111122 
COMPS,ioos:station:USF.COMPS:EGK:1,2008-08-11T11:48:00Z,27.6010,-82.7510,28.56,1111122 
COMPS,ioos:station:USF.COMPS:EGK:1,2008-08-11T11:54:00Z,27.6010,-82.7510,28.69,1111122 
COMPS,ioos:station:USF.COMPS:EGK:1,2008-08-11T12:00:00Z,27.6010,-82.7510,28.66,1111122 
COMPS,ioos:station:USF.COMPS:EGK:1,2008-08-11T12:06:00Z,27.6010,-82.7510,28.69,1111122 
COMPS,ioos:station:USF.COMPS:EGK:1,2008-08-11T12:12:00Z,27.6010,-82.7510,28.8,1111122 
COMPS,ioos:station:USF.COMPS:EGK:1,2008-08-11T12:18:00Z,27.6010,-82.7510,28.74,1111122 
COMPS,ioos:station:USF.COMPS:EGK:1,2008-08-11T12:24:00Z,27.6010,-82.7510,28.77,1111122 
COMPS,ioos:station:USF.COMPS:EGK:1,2008-08-11T12:30:00Z,27.6010,-82.7510,29.19,1111122 
COMPS,ioos:station:USF.COMPS:EGK:1,2008-08-11T12:36:00Z,27.6010,-82.7510,29.17,1111122 
COMPS,ioos:station:USF.COMPS:EGK:1,2008-08-11T12:42:00Z,27.6010,-82.7510,29.19,1111122 
COMPS,ioos:station:USF.COMPS:EGK:1,2008-08-11T12:48:00Z,27.6010,-82.7510,29.43,1111122 
COMPS,ioos:station:USF.COMPS:EGK:1,2008-08-11T12:54:00Z,27.6010,-82.7510,29.13,1111122 
COMPS,ioos:station:USF.COMPS:EGK:1,2008-08-11T13:00:00Z,27.6010,-82.7510,29.27,1111122 
COMPS,ioos:station:USF.COMPS:EGK:1,2008-08-11T13:06:00Z,27.6010,-82.7510,29.83,1111122 
COMPS,ioos:station:USF.COMPS:EGK:1,2008-08-11T13:12:00Z,27.6010,-82.7510,29.43,1111122 
COMPS,ioos:station:USF.COMPS:EGK:1,2008-08-11T13:18:00Z,27.6010,-82.7510,29.34,1111122 
COMPS,ioos:station:USF.COMPS:EGK:1,2008-08-11T13:24:00Z,27.6010,-82.7510,29.43,1111122 
COMPS,ioos:station:USF.COMPS:EGK:1,2008-08-11T13:30:00Z,27.6010,-82.7510,29.42,1111122 
COMPS,ioos:station:USF.COMPS:EGK:1,2008-08-11T13:36:00Z,27.6010,-82.7510,29.85,1111122 
COMPS,ioos:station:USF.COMPS:EGK:1,2008-08-11T13:42:00Z,27.6010,-82.7510,29.7,1111122 
COMPS,ioos:station:USF.COMPS:EGK:1,2008-08-11T13:48:00Z,27.6010,-82.7510,29.66,1111122 
COMPS,ioos:station:USF.COMPS:EGK:1,2008-08-11T13:54:00Z,27.6010,-82.7510,29.76,1111122 
COMPS,ioos:station:USF.COMPS:EGK:1,2008-08-11T14:00:00Z,27.6010,-82.7510,29.58,1111122 
COMPS,ioos:station:USF.COMPS:EGK:1,2008-08-11T14:06:00Z,27.6010,-82.7510,29.74,1111122 
COMPS,ioos:station:USF.COMPS:EGK:1,2008-08-11T14:12:00Z,27.6010,-82.7510,29.7,1111122 
COMPS,ioos:station:USF.COMPS:EGK:1,2008-08-11T14:18:00Z,27.6010,-82.7510,29.41,1111122 
COMPS,ioos:station:USF.COMPS:EGK:1,2008-08-11T14:24:00Z,27.6010,-82.7510,29.7,1111122 
COMPS,ioos:station:USF.COMPS:EGK:1,2008-08-11T14:30:00Z,27.6010,-82.7510,29.46,1111122 
COMPS,ioos:station:USF.COMPS:EGK:1,2008-08-11T14:36:00Z,27.6010,-82.7510,29.43,1111122 
COMPS,ioos:station:USF.COMPS:EGK:1,2008-08-11T14:42:00Z,27.6010,-82.7510,29.85,1111122 
COMPS,ioos:station:USF.COMPS:EGK:1,2008-08-11T14:48:00Z,27.6010,-82.7510,29.53,1111122 
COMPS,ioos:station:USF.COMPS:EGK:1,2008-08-11T14:54:00Z,27.6010,-82.7510,29.36,1111122 
COMPS,ioos:station:USF.COMPS:EGK:1,2008-08-11T15:00:00Z,27.6010,-82.7510,30.08,1111122 
COMPS,ioos:station:USF.COMPS:EGK:1,2008-08-11T15:06:00Z,27.6010,-82.7510,30.07,1111122 
COMPS,ioos:station:USF.COMPS:EGK:1,2008-08-11T15:12:00Z,27.6010,-82.7510,29.59,1111122 
COMPS,ioos:station:USF.COMPS:EGK:1,2008-08-11T15:18:00Z,27.6010,-82.7510,29.47,1111122 
COMPS,ioos:station:USF.COMPS:EGK:1,2008-08-11T15:24:00Z,27.6010,-82.7510,29.87,1111122 
COMPS,ioos:station:USF.COMPS:EGK:1,2008-08-11T15:30:00Z,27.6010,-82.7510,29.58,1111122 
COMPS,ioos:station:USF.COMPS:EGK:1,2008-08-11T15:36:00Z,27.6010,-82.7510,29.49,1111122 
COMPS,ioos:station:USF.COMPS:EGK:1,2008-08-11T15:42:00Z,27.6010,-82.7510,29.56,1111122 
COMPS,ioos:station:USF.COMPS:EGK:1,2008-08-11T15:48:00Z,27.6010,-82.7510,29.59,1111122 
COMPS,ioos:station:USF.COMPS:EGK:1,2008-08-11T15:54:00Z,27.6010,-82.7510,29.81,1111122 
COMPS,ioos:station:USF.COMPS:EGK:1,2008-08-11T16:00:00Z,27.6010,-82.7510,29.87,1111122 
COMPS,ioos:station:USF.COMPS:EGK:1,2008-08-11T16:06:00Z,27.6010,-82.7510,29.52,1111122 
COMPS,ioos:station:USF.COMPS:EGK:1,2008-08-11T16:12:00Z,27.6010,-82.7510,29.27,1111122 
COMPS,ioos:station:USF.COMPS:EGK:1,2008-08-11T16:18:00Z,27.6010,-82.7510,29.56,1111122 
COMPS,ioos:station:USF.COMPS:EGK:1,2008-08-11T16:24:00Z,27.6010,-82.7510,29.58,1111122 
COMPS,ioos:station:USF.COMPS:EGK:1,2008-08-11T16:30:00Z,27.6010,-82.7510,29.56,1111122 
COMPS,ioos:station:USF.COMPS:EGK:1,2008-08-11T16:36:00Z,27.6010,-82.7510,29.7,1111122 
COMPS,ioos:station:USF.COMPS:EGK:1,2008-08-11T16:42:00Z,27.6010,-82.7510,29.52,1111122 
COMPS,ioos:station:USF.COMPS:EGK:1,2008-08-11T16:48:00Z,27.6010,-82.7510,29.9,1111122 
COMPS,ioos:station:USF.COMPS:EGK:1,2008-08-11T16:54:00Z,27.6010,-82.7510,30.47,1111122 
COMPS,ioos:station:USF.COMPS:EGK:1,2008-08-11T17:00:00Z,27.6010,-82.7510,30.45,1111122 
COMPS,ioos:station:USF.COMPS:EGK:1,2008-08-11T17:06:00Z,27.6010,-82.7510,30.25,1111122 
COMPS,ioos:station:USF.COMPS:EGK:1,2008-08-11T17:12:00Z,27.6010,-82.7510,30.4,1111122 
COMPS,ioos:station:USF.COMPS:EGK:1,2008-08-11T17:18:00Z,27.6010,-82.7510,30.49,1111122 
COMPS,ioos:station:USF.COMPS:EGK:1,2008-08-11T17:24:00Z,27.6010,-82.7510,30.86,1111122 
COMPS,ioos:station:USF.COMPS:EGK:1,2008-08-11T17:30:00Z,27.6010,-82.7510,30.6,1111122 
COMPS,ioos:station:USF.COMPS:EGK:1,2008-08-11T17:36:00Z,27.6010,-82.7510,30.15,1111122 
COMPS,ioos:station:USF.COMPS:EGK:1,2008-08-11T17:42:00Z,27.6010,-82.7510,30.59,1111122 
COMPS,ioos:station:USF.COMPS:EGK:1,2008-08-11T17:48:00Z,27.6010,-82.7510,30.44,1111122 
COMPS,ioos:station:USF.COMPS:EGK:1,2008-08-11T17:54:00Z,27.6010,-82.7510,30.37,1111122 
COMPS,ioos:station:USF.COMPS:EGK:1,2008-08-11T18:00:00Z,27.6010,-82.7510,30.72,1111122 
COMPS,ioos:station:USF.COMPS:EGK:1,2008-08-11T18:06:00Z,27.6010,-82.7510,30.71,1111122 
COMPS,ioos:station:USF.COMPS:EGK:1,2008-08-11T18:12:00Z,27.6010,-82.7510,30.83,1111122 
COMPS,ioos:station:USF.COMPS:EGK:1,2008-08-11T18:18:00Z,27.6010,-82.7510,30.47,1111122 
COMPS,ioos:station:USF.COMPS:EGK:1,2008-08-11T18:24:00Z,27.6010,-82.7510,30.68,1111122 
COMPS,ioos:station:USF.COMPS:EGK:1,2008-08-11T18:30:00Z,27.6010,-82.7510,30.57,1111122 
COMPS,ioos:station:USF.COMPS:EGK:1,2008-08-11T18:36:00Z,27.6010,-82.7510,30.84,1111122 
COMPS,ioos:station:USF.COMPS:EGK:1,2008-08-11T18:42:00Z,27.6010,-82.7510,31.01,1111122 
COMPS,ioos:station:USF.COMPS:EGK:1,2008-08-11T18:48:00Z,27.6010,-82.7510,30.87,1111122 
COMPS,ioos:station:USF.COMPS:EGK:1,2008-08-11T18:54:00Z,27.6010,-82.7510,30.63,1111122 
COMPS,ioos:station:USF.COMPS:EGK:1,2008-08-11T19:00:00Z,27.6010,-82.7510,30.9,1111122 
COMPS,ioos:station:USF.COMPS:EGK:1,2008-08-11T19:06:00Z,27.6010,-82.7510,30.91,1111122 
COMPS,ioos:station:USF.COMPS:EGK:1,2008-08-11T19:12:00Z,27.6010,-82.7510,30.61,1111122 
COMPS,ioos:station:USF.COMPS:EGK:1,2008-08-11T19:18:00Z,27.6010,-82.7510,30.64,1111122 
COMPS,ioos:station:USF.COMPS:EGK:1,2008-08-11T19:24:00Z,27.6010,-82.7510,30.7,1111122 
COMPS,ioos:station:USF.COMPS:EGK:1,2008-08-11T19:30:00Z,27.6010,-82.7510,30.86,1111122 
COMPS,ioos:station:USF.COMPS:EGK:1,2008-08-11T19:36:00Z,27.6010,-82.7510,30.58,1111122 
COMPS,ioos:station:USF.COMPS:EGK:1,2008-08-11T19:42:00Z,27.6010,-82.7510,30.84,1111122 
COMPS,ioos:station:USF.COMPS:EGK:1,2008-08-11T19:48:00Z,27.6010,-82.7510,31.1,1111122 
COMPS,ioos:station:USF.COMPS:EGK:1,2008-08-11T19:54:00Z,27.6010,-82.7510,30.79,1111122 
COMPS,ioos:station:USF.COMPS:EGK:1,2008-08-11T20:00:00Z,27.6010,-82.7510,30.63,1111122 
COMPS,ioos:station:USF.COMPS:EGK:1,2008-08-11T20:06:00Z,27.6010,-82.7510,30.79,1111122 
COMPS,ioos:station:USF.COMPS:EGK:1,2008-08-11T20:12:00Z,27.6010,-82.7510,30.43,1111122 
COMPS,ioos:station:USF.COMPS:EGK:1,2008-08-11T20:18:00Z,27.6010,-82.7510,30.55,1111122 
COMPS,ioos:station:USF.COMPS:EGK:1,2008-08-11T20:24:00Z,27.6010,-82.7510,30.65,1111122 
COMPS,ioos:station:USF.COMPS:EGK:1,2008-08-11T20:30:00Z,27.6010,-82.7510,30.72,1111122 
COMPS,ioos:station:USF.COMPS:EGK:1,2008-08-11T20:36:00Z,27.6010,-82.7510,30.5,1111122 
COMPS,ioos:station:USF.COMPS:EGK:1,2008-08-11T20:42:00Z,27.6010,-82.7510,30.61,1111122 
COMPS,ioos:station:USF.COMPS:EGK:1,2008-08-11T20:48:00Z,27.6010,-82.7510,30.42,1111122 
COMPS,ioos:station:USF.COMPS:EGK:1,2008-08-11T20:54:00Z,27.6010,-82.7510,30.21,1111122 
COMPS,ioos:station:USF.COMPS:EGK:1,2008-08-11T21:00:00Z,27.6010,-82.7510,30.36,1111122 
COMPS,ioos:station:USF.COMPS:EGK:1,2008-08-11T21:06:00Z,27.6010,-82.7510,30.45,1111122 
COMPS,ioos:station:USF.COMPS:EGK:1,2008-08-11T21:12:00Z,27.6010,-82.7510,30.33,1111122 
COMPS,ioos:station:USF.COMPS:EGK:1,2008-08-11T21:18:00Z,27.6010,-82.7510,30.13,1111122 
COMPS,ioos:station:USF.COMPS:EGK:1,2008-08-11T21:24:00Z,27.6010,-82.7510,30.41,1111122 
COMPS,ioos:station:USF.COMPS:EGK:1,2008-08-11T21:30:00Z,27.6010,-82.7510,30.5,1111122 
COMPS,ioos:station:USF.COMPS:EGK:1,2008-08-11T21:36:00Z,27.6010,-82.7510,30.6,1111122 
COMPS,ioos:station:USF.COMPS:EGK:1,2008-08-11T21:42:00Z,27.6010,-82.7510,30.6,1111122 
COMPS,ioos:station:USF.COMPS:EGK:1,2008-08-11T21:48:00Z,27.6010,-82.7510,30.42,1111122 
COMPS,ioos:station:USF.COMPS:EGK:1,2008-08-11T21:54:00Z,27.6010,-82.7510,30.1,1111122 
COMPS,ioos:station:USF.COMPS:EGK:1,2008-08-11T22:00:00Z,27.6010,-82.7510,30.34,1111122 
COMPS,ioos:station:USF.COMPS:EGK:1,2008-08-11T22:06:00Z,27.6010,-82.7510,30.13,1111122 
COMPS,ioos:station:USF.COMPS:EGK:1,2008-08-11T22:12:00Z,27.6010,-82.7510,29.89,1111122 
COMPS,ioos:station:USF.COMPS:EGK:1,2008-08-11T22:18:00Z,27.6010,-82.7510,29.96,1111122 
COMPS,ioos:station:USF.COMPS:EGK:1,2008-08-11T22:24:00Z,27.6010,-82.7510,29.86,1111122 
COMPS,ioos:station:USF.COMPS:EGK:1,2008-08-11T22:30:00Z,27.6010,-82.7510,30.14,1111122 
COMPS,ioos:station:USF.COMPS:EGK:1,2008-08-11T22:36:00Z,27.6010,-82.7510,30.02,1111122 
COMPS,ioos:station:USF.COMPS:EGK:1,2008-08-11T22:42:00Z,27.6010,-82.7510,30.08,1111122 
COMPS,ioos:station:USF.COMPS:EGK:1,2008-08-11T22:48:00Z,27.6010,-82.7510,29.68,1111122 
COMPS,ioos:station:USF.COMPS:EGK:1,2008-08-11T22:54:00Z,27.6010,-82.7510,29.85,1111122 
COMPS,ioos:station:USF.COMPS:EGK:1,2008-08-11T23:00:00Z,27.6010,-82.7510,29.9,1111122 
COMPS,ioos:station:USF.COMPS:EGK:1,2008-08-11T23:06:00Z,27.6010,-82.7510,29.85,1111122 
COMPS,ioos:station:USF.COMPS:EGK:1,2008-08-11T23:12:00Z,27.6010,-82.7510,29.85,1111122 
COMPS,ioos:station:USF.COMPS:EGK:1,2008-08-11T23:18:00Z,27.6010,-82.7510,29.74,1111122 
COMPS,ioos:station:USF.COMPS:EGK:1,2008-08-11T23:24:00Z,27.6010,-82.7510,29.72,1111122 
COMPS,ioos:station:USF.COMPS:EGK:1,2008-08-11T23:30:00Z,27.6010,-82.7510,29.7,1111122 
COMPS,ioos:station:USF.COMPS:EGK:1,2008-08-11T23:36:00Z,27.6010,-82.7510,29.61,1111122 
COMPS,ioos:station:USF.COMPS:EGK:1,2008-08-11T23:42:00Z,27.6010,-82.7510,29.42,1111122 
COMPS,ioos:station:USF.COMPS:EGK:1,2008-08-11T23:48:00Z,27.6010,-82.7510,29.28,1111122 
COMPS,ioos:station:USF.COMPS:EGK:1,2008-08-11T23:54:00Z,27.6010,-82.7510,29.16,1111122 
COMPS,ioos:station:USF.COMPS:EGK:1,2008-08-12T00:00:00Z,27.6010,-82.7510,29.2,1111122 
COMPS,ioos:station:USF.COMPS:EGK:1,2008-08-12T00:06:00Z,27.6010,-82.7510,29.16,1111122 
COMPS,ioos:station:USF.COMPS:EGK:1,2008-08-12T00:12:00Z,27.6010,-82.7510,29.06,1111122 
COMPS,ioos:station:USF.COMPS:EGK:1,2008-08-12T00:18:00Z,27.6010,-82.7510,29.05,1111122 
COMPS,ioos:station:USF.COMPS:EGK:1,2008-08-12T00:24:00Z,27.6010,-82.7510,29.09,1111122 
COMPS,ioos:station:USF.COMPS:EGK:1,2008-08-12T00:30:00Z,27.6010,-82.7510,29.05,1111122 
COMPS,ioos:station:USF.COMPS:EGK:1,2008-08-12T00:36:00Z,27.6010,-82.7510,29.05,1111122 
COMPS,ioos:station:USF.COMPS:EGK:1,2008-08-12T00:42:00Z,27.6010,-82.7510,29.06,1111122 
COMPS,ioos:station:USF.COMPS:EGK:1,2008-08-12T00:48:00Z,27.6010,-82.7510,29.1,1111122 
COMPS,ioos:station:USF.COMPS:EGK:1,2008-08-12T00:54:00Z,27.6010,-82.7510,29.08,1111122 
COMPS,ioos:station:USF.COMPS:EGK:1,2008-08-12T01:00:00Z,27.6010,-82.7510,28.11,1111122 
COMPS,ioos:station:USF.COMPS:EGK:1,2008-08-12T01:06:00Z,27.6010,-82.7510,28.2,1111122 
COMPS,ioos:station:USF.COMPS:EGK:1,2008-08-12T01:12:00Z,27.6010,-82.7510,28.41,1111122 
COMPS,ioos:station:USF.COMPS:EGK:1,2008-08-12T01:18:00Z,27.6010,-82.7510,28.26,1111122 
COMPS,ioos:station:USF.COMPS:EGK:1,2008-08-12T01:24:00Z,27.6010,-82.7510,28.42,1111122 
COMPS,ioos:station:USF.COMPS:EGK:1,2008-08-12T01:30:00Z,27.6010,-82.7510,28.32,1111122 
COMPS,ioos:station:USF.COMPS:EGK:1,2008-08-12T01:36:00Z,27.6010,-82.7510,28.31,1111122 
COMPS,ioos:station:USF.COMPS:EGK:1,2008-08-12T01:42:00Z,27.6010,-82.7510,28.28,1111122 
COMPS,ioos:station:USF.COMPS:EGK:1,2008-08-12T01:48:00Z,27.6010,-82.7510,28.18,1111122 
COMPS,ioos:station:USF.COMPS:EGK:1,2008-08-12T01:54:00Z,27.6010,-82.7510,28.09,1111122 
COMPS,ioos:station:USF.COMPS:EGK:1,2008-08-12T02:00:00Z,27.6010,-82.7510,28.05,1111122 
COMPS,ioos:station:USF.COMPS:EGK:1,2008-08-12T02:06:00Z,27.6010,-82.7510,28.14,1111122 
COMPS,ioos:station:USF.COMPS:EGK:1,2008-08-12T02:12:00Z,27.6010,-82.7510,28.13,1111122 
COMPS,ioos:station:USF.COMPS:EGK:1,2008-08-12T02:18:00Z,27.6010,-82.7510,28.06,1111122 
COMPS,ioos:station:USF.COMPS:EGK:1,2008-08-12T02:24:00Z,27.6010,-82.7510,28.07,1111122 
COMPS,ioos:station:USF.COMPS:EGK:1,2008-08-12T02:30:00Z,27.6010,-82.7510,28.05,1111122 
COMPS,ioos:station:USF.COMPS:EGK:1,2008-08-12T02:36:00Z,27.6010,-82.7510,28.14,1111122 
COMPS,ioos:station:USF.COMPS:EGK:1,2008-08-12T02:42:00Z,27.6010,-82.7510,28.04,1111122 
COMPS,ioos:station:USF.COMPS:EGK:1,2008-08-12T02:48:00Z,27.6010,-82.7510,28.06,1111122 
COMPS,ioos:station:USF.COMPS:EGK:1,2008-08-12T02:54:00Z,27.6010,-82.7510,28.14,1111122 
COMPS,ioos:station:USF.COMPS:EGK:1,2008-08-12T03:00:00Z,27.6010,-82.7510,28.11,1111122 
COMPS,ioos:station:USF.COMPS:EGK:1,2008-08-12T03:06:00Z,27.6010,-82.7510,28.17,1111122 
COMPS,ioos:station:USF.COMPS:EGK:1,2008-08-12T03:12:00Z,27.6010,-82.7510,28.29,1111122 
COMPS,ioos:station:USF.COMPS:EGK:1,2008-08-12T03:18:00Z,27.6010,-82.7510,28.35,1111122 
COMPS,ioos:station:USF.COMPS:EGK:1,2008-08-12T03:24:00Z,27.6010,-82.7510,28.44,1111122 
COMPS,ioos:station:USF.COMPS:EGK:1,2008-08-12T03:30:00Z,27.6010,-82.7510,28.58,1111122 
COMPS,ioos:station:USF.COMPS:EGK:1,2008-08-12T03:36:00Z,27.6010,-82.7510,28.58,1111122 
COMPS,ioos:station:USF.COMPS:EGK:1,2008-08-12T03:42:00Z,27.6010,-82.7510,28.59,1111122 
COMPS,ioos:station:USF.COMPS:EGK:1,2008-08-12T03:48:00Z,27.6010,-82.7510,28.59,1111122 
COMPS,ioos:station:USF.COMPS:EGK:1,2008-08-12T03:54:00Z,27.6010,-82.7510,28.58,1111122 
COMPS,ioos:station:USF.COMPS:EGK:1,2008-08-12T04:00:00Z,27.6010,-82.7510,28.57,1111122 
COMPS,ioos:station:USF.COMPS:EGK:1,2008-08-12T04:06:00Z,27.6010,-82.7510,28.46,1111122 